Regional Weather Roundup
Issued by NWS

Home | Current Version | Previous Version | Text Only | Print | Product List | Glossary Off
Versions: 1 2 3 4 5 6 7 8 9 10 11 12 13 14 15 16 17 18 19 20 21 22 23 24 25 26 27

000
ASUS45 KBOU 111810
RWRCO

WEATHER ROUNDUP FOR COLORADO
NATIONAL WEATHER SERVICE DENVER/BOULDER CO
1100 AM MST MON DEC 11 2017

NOTE: "FAIR" INDICATES FEW OR NO CLOUDS BELOW 12000 FEET WITH NO
SIGNIFICANT WEATHER AND/OR OBSTRUCTIONS TO VISIBILITY.

COZ001>005-013-030-031-111900-
...NORTHWEST COLORADO...

CITY           SKY/WX    TMP DP  RH WIND       PRES   REMARKS
CRAIG          FAIR      23  12  62 W3        30.55F
HAYDEN         FAIR      24  11  57 CALM      30.56S
MEEKER         FAIR      38   7  27 CALM      30.54F
RABBIT EARS PA FAIR      28   3  34 W9G24     30.55F WCI  20
STEAMBOAT SPGS FAIR      24   9  51 CALM      30.54F
WALDEN         FAIR      27   7  43 CALM      30.52S
$$

COZ006>008-011-111900-
...WEST CENTRAL VALLEYS...

CITY           SKY/WX    TMP DP  RH WIND       PRES   REMARKS
GRAND JUNCTION FAIR      34   5  29 CALM      30.57S
MONTROSE       FAIR      38  -4  16 W5        30.56F
EAGLE          FAIR      20   9  62 CALM      30.64F
RIFLE          FAIR      35   5  28 N3        30.57F
DELTA          FAIR      34   0  24 CALM      30.57F
NUCLA          FAIR      32  -8  18 CALM      30.58S
$$

COZ017>023-064>068-111900-
...SOUTHWEST COLORADO...

CITY           SKY/WX    TMP DP  RH WIND       PRES   REMARKS
DURANGO        FAIR      40   4  22 VRB5      30.47F
CORTEZ         FAIR      38   1  21 SW5       30.50F
PAGOSA SPRINGS FAIR      45  -4  13 S5        30.46F
TELLURIDE      FAIR      46  -5  12 CALM      30.58S
WOLF CREEK PAS FAIR      32   1  27 NW6       30.67S WCI  26
$$

COZ009-010-012-014-032>034-037-058>063-111900-
...CENTRAL COLORADO...

CITY           SKY/WX    TMP DP  RH WIND       PRES   REMARKS
ASPEN          FAIR      40   1  19 CALM      30.54F
BUENA VISTA    FAIR      44  -5  12 CALM      30.47F
COPPER MTN     NOT AVBL
BERTHOUD PASS  FAIR      21  10  63 NW30G41   30.53S WCI   3
COTTONWOOD PAS FAIR      50 -13   7 S6        30.51F
GUNNISON       FAIR      24   2  38 CALM      30.61F
KREMMLING      LGT SNOW  19  14  79 CALM      30.63F
LEADVILLE      FAIR      39  -4  16 N12       30.52F
MONARCH PASS   FAIR      30  -8  19 SW12G21   30.69R WCI  21
SALIDA         FAIR      46  -5  11 N12       30.53F
SUNLIGHT       FAIR      32 -15  12 W7        30.63F WCI  26
WILKERSON PASS FAIR      36 -13  12 N10G18    30.56S
$$

COZ069>075-111900-
...SAN LUIS VALLEY/SANGRE DE CRISTO MOUNTAINS...

CITY           SKY/WX    TMP DP  RH WIND       PRES   REMARKS
ALAMOSA        FAIR      34  -1  22 NW6       30.50F WCI  29
DEL NORTE      FAIR      36  -3  18 CALM      30.51F
LA VETA PASS   FAIR      36  -2  20 SW22G30     N/A
SAGUACHE       FAIR      36  -6  17 CALM      30.50F
$$

COZ035-036-038>040-111900-
...NORTHERN COLORADO FRONT RANGE...

CITY           SKY/WX    TMP DP  RH WIND       PRES   REMARKS
DENVER INTL AP FAIR      54   1  11 E10       30.35R
DMNS CITY PARK NOT AVBL
AURORA         MOSUNNY   55  -5   8 NE6       30.35S
FRONT RANGE AP MOSUNNY   55   1  11 NE9       30.36R
ERIE MUNI ARPT FAIR      48   5  17 N6        30.40S
BOULDER MUN AP FAIR      54   5  14 N3        30.34F
CENTENNIAL     FAIR      57   5  12 NE5       30.35S
BROOMFIELD     MOSUNNY   54   3  13 NW5       30.36R
FORT COLLINS   FAIR      52   3  13 SE3       30.36R
LONGMONT       FAIR      56   9  15 E5        30.36S
$$

COZ041-046-047-076>085-087-088-111900-
...PIKES PEAK/PALMER DIVIDE AND SOUTHERN FOOTHILLS...

CITY           SKY/WX    TMP DP  RH WIND       PRES   REMARKS
COLO. SPRINGS  FAIR      56  -4   8 SE5       30.36F
A. F. ACADEMY  FAIR      56 -11   6 S8        30.36F
SCHRIEVER AFB  FAIR      53  -5   9 S8        30.36F
CHEYENNE MTN   FAIR      53  -3   9 SE8       30.32F
ELLICOTT         N/A    N/A N/A N/A S12       30.35F
FALCON         FAIR      55  -9   7 S5        30.39F
FORT CARSON    FAIR      56 -10   6 E5        30.34F
LIMON          FAIR      53   0  11 VRB7      30.35F
MONUMENT HILL  FAIR      52  -4  10 N7        30.39F
CANON CITY     FAIR      61   1   9 W9        30.32F
WALSENBURG     FAIR      63   1   8 NW5       30.35F
TRINIDAD       FAIR      58   1  10 NE3       30.35F
$$

COZ042>045-048>051-090-091-111900-
...NORTHEAST COLORADO...

CITY           SKY/WX    TMP DP  RH WIND       PRES   REMARKS
GREELEY ARPT   FAIR      48  13  24 S6        30.36S
AKRON          FAIR      52   8  17 N29G45    30.34R
BURLINGTON     FAIR      55  12  18 N23G38    30.30F
WRAY           FAIR      55  10  16 NW25G35   30.30S
YUMA           FAIR      52  12  20 NW23G36   30.31S
STERLING       FAIR      54  14  20 NW21G28   30.34S
HOLYOKE        FAIR      54  12  19 NW36G48   30.30R
FORT MORGAN    FAIR      54   4  13 N20G30    30.36S
$$

COZ086-089-092>099-111900-
...SOUTHEAST COLORADO...

CITY           SKY/WX    TMP DP  RH WIND       PRES   REMARKS
PUEBLO         FAIR      52   3  13 CALM      30.33F
LA JUNTA       FAIR      53   5  14 CALM      30.35F
LAMAR          FAIR      54   5  14 W7        30.33F
SPRINGFIELD      N/A     58   9  14 N20       30.32F
$$




USA.gov is the U.S. government's official web portal to all federal, state and local government web resources and services.